EW0607 Weather Reports


time (UTC)temp
C
wind
direction
speed
KPH
gust
KPH
rain 1hr
cm
rain 24hr
cm
rain mn
cm
humidity
%
barometer
mb
20260502163016 25 360 1.6 0.0 0.00 0.00 0.00 14 1009.8
20260502162548 26 360 1.6 0.0 0.00 0.00 0.00 13 1009.8
20260502162024 26 360 1.6 0.0 0.00 0.00 0.00 13 1009.8
20260502161507 25 360 1.6 0.0 0.00 0.00 0.00 13 1009.8
20260502161051 25 360 1.6 0.0 0.00 0.00 0.00 13 1009.9
20260502160529 25 360 0.0 0.0 0.00 0.00 0.00 12 1009.9
20260502152020 22 360 3.2 0.0 0.00 0.00 0.00 14 1010.1
20260502151632 22 360 3.2 0.0 0.00 0.00 0.00 14 1010.1
20260502151041 21 360 3.2 0.0 0.00 0.00 0.00 15 1010.1
20260502150519 21 360 3.2 0.0 0.00 0.00 0.00 14 1010.1
20260502150111 21 360 3.2 0.0 0.00 0.00 0.00 15 1010.2
20260502130519 13 360 1.6 0.0 0.00 0.00 0.00 19 1010.0
20260502123518 15 360 1.6 0.0 0.00 0.00 0.00 17 1009.1
20260502123108 15 360 1.6 0.0 0.00 0.00 0.00 17 1009.1
20260502122541 15 360 1.6 0.0 0.00 0.00 0.00 17 1009.1
20260502122023 15 360 1.6 0.0 0.00 0.00 0.00 17 1009.2
20260502121502 15 360 0.0 0.0 0.00 0.00 0.00 17 1009.1
20260502121043 15 360 1.6 0.0 0.00 0.00 0.00 17 1009.0
20260502120521 16 360 1.6 0.0 0.00 0.00 0.00 16 1008.9
20260502115544 17 360 0.0 0.0 0.00 0.00 0.00 16 1008.4
20260502115021 17 360 0.0 0.0 0.00 0.00 0.00 16 1008.4
20260502114613 17 360 0.0 0.0 0.00 0.00 0.00 15 1008.4
20260502114046 17 360 0.0 0.0 0.00 0.00 0.00 15 1008.4
20260502113529 18 360 0.0 0.0 0.00 0.00 0.00 15 1008.4
20260502113013 18 360 1.6 0.0 0.00 0.00 0.00 15 1008.4
20260502112556 17 360 1.6 0.0 0.00 0.00 0.00 15 1008.3
20260502112036 17 360 1.6 0.0 0.00 0.00 0.00 15 1008.3
20260502111514 18 360 1.6 0.0 0.00 0.00 0.00 15 1008.2
20260502111100 18 360 1.6 0.0 0.00 0.00 0.00 14 1008.2
20260502110538 18 360 1.6 0.0 0.00 0.00 0.00 15 1008.3
20260502110020 18 360 1.6 0.0 0.00 0.00 0.00 14 1008.1
20260502105501 18 360 0.0 0.0 0.00 0.00 0.00 14 1008.3
20260502105049 18 360 0.0 0.0 0.00 0.00 0.00 14 1008.2
20260502104533 18 360 1.6 0.0 0.00 0.00 0.00 13 1008.3
20260502104015 18 360 1.6 0.0 0.00 0.00 0.00 13 1008.3
20260502103602 18 360 1.6 0.0 0.00 0.00 0.00 14 1008.2
20260502103044 17 360 1.6 0.0 0.00 0.00 0.00 14 1008.3
20260502102529 18 360 1.6 0.0 0.00 0.00 0.00 13 1008.3
20260502102005 17 360 1.6 0.0 0.00 0.00 0.00 13 1008.3
20260502101559 17 360 1.6 0.0 0.00 0.00 0.00 13 1008.4
20260502101029 17 360 0.0 0.0 0.00 0.00 0.00 13 1008.4
20260502100508 17 360 0.0 0.0 0.00 0.00 0.00 13 1008.4
20260502100127 17 360 0.0 0.0 0.00 0.00 0.00 13 1008.3
20260502091041 19 360 0.0 0.0 0.00 0.00 0.00 12 1008.3
20260502090517 20 360 1.6 0.0 0.00 0.00 0.00 12 1008.3
20260502090130 20 360 1.6 0.0 0.00 0.00 0.00 12 1008.4
20260502071007 21 360 0.0 0.0 0.00 0.00 0.00 11 1008.0
20260502070553 21 360 1.6 0.0 0.00 0.00 0.00 11 1007.9
20260502070029 21 360 3.2 0.0 0.00 0.00 0.00 10 1008.0
20260502065511 21 360 3.2 0.0 0.00 0.00 0.00 10 1008.0
20260502065057 22 360 6.4 0.0 0.00 0.00 0.00 9 1007.9
20260502064541 22 360 9.7 0.0 0.00 0.00 0.00 9 1007.8
20260502064025 22 360 9.7 0.0 0.00 0.00 0.00 9 1007.7
20260502063500 22 360 8.0 0.0 0.00 0.00 0.00 9 1007.6
20260502063043 22 360 9.7 0.0 0.00 0.00 0.00 9 1007.6
20260502062522 22 360 9.7 0.0 0.00 0.00 0.00 9 1007.5
20260502062000 22 360 9.7 0.0 0.00 0.00 0.00 9 1007.5
20260502061548 23 360 9.7 0.0 0.00 0.00 0.00 9 1007.4
20260502061022 23 360 9.7 0.0 0.00 0.00 0.00 8 1007.2
20260502060503 23 360 9.7 0.0 0.00 0.00 0.00 8 1007.1
20260502060049 22 360 9.7 0.0 0.00 0.00 0.00 9 1007.1
20260502055534 23 360 9.7 0.0 0.00 0.00 0.00 9 1007.0
20260502055016 23 360 9.7 0.0 0.00 0.00 0.00 9 1007.0
20260502054501 23 360 9.7 0.0 0.00 0.00 0.00 9 1007.0
20260502054047 23 360 9.7 0.0 0.00 0.00 0.00 9 1007.0
20260502053532 23 360 11.3 0.0 0.00 0.00 0.00 9 1007.0
20260502053017 23 360 11.3 0.0 0.00 0.00 0.00 8 1007.0
20260502052502 23 360 14.5 0.0 0.00 0.00 0.00 8 1007.0
20260502052048 23 360 12.9 0.0 0.00 0.00 0.00 8 1007.0
20260502051532 23 360 11.3 0.0 0.00 0.00 0.00 8 1006.8
20260502051007 23 360 11.3 0.0 0.00 0.00 0.00 9 1006.7
20260502050553 23 360 11.3 0.0 0.00 0.00 0.00 9 1006.8
20260502050036 23 360 9.7 0.0 0.00 0.00 0.00 9 1006.7
20260502045522 23 360 9.7 0.0 0.00 0.00 0.00 9 1006.9
20260502045004 23 360 9.7 0.0 0.00 0.00 0.00 9 1006.7
20260502044550 23 360 9.7 0.0 0.00 0.00 0.00 9 1006.8
20260502044031 23 360 8.0 0.0 0.00 0.00 0.00 9 1006.6
20260502043513 23 360 8.0 0.0 0.00 0.00 0.00 9 1006.5
20260502043104 23 360 9.7 0.0 0.00 0.00 0.00 9 1006.5
20260502042543 24 360 9.7 0.0 0.00 0.00 0.00 9 1006.5
20260502042022 24 360 11.3 0.0 0.00 0.00 0.00 9 1006.3
20260502041503 24 360 12.9 0.0 0.00 0.00 0.00 9 1006.2
20260502041045 24 360 12.9 0.0 0.00 0.00 0.00 8 1006.2
20260502040526 24 360 14.5 0.0 0.00 0.00 0.00 8 1006.1
20260502040014 25 360 12.9 0.0 0.00 0.00 0.00 8 1006.0
20260502035559 25 360 12.9 0.0 0.00 0.00 0.00 8 1006.3
20260502035041 25 360 14.5 0.0 0.00 0.00 0.00 8 1006.3
20260502034529 25 360 16.1 0.0 0.00 0.00 0.00 8 1006.2
20260502034011 25 360 14.5 0.0 0.00 0.00 0.00 8 1006.0
20260502033554 25 360 14.5 0.0 0.00 0.00 0.00 8 1006.0
20260502033033 25 360 12.9 0.0 0.00 0.00 0.00 8 1005.9
20260502032512 25 360 12.9 0.0 0.00 0.00 0.00 8 1005.8
20260502032057 25 360 12.9 0.0 0.00 0.00 0.00 8 1005.8
20260502031536 25 360 11.3 0.0 0.00 0.00 0.00 8 1005.6
20260502031016 25 360 11.3 0.0 0.00 0.00 0.00 8 1005.6
20260502030501 25 360 14.5 0.0 0.00 0.00 0.00 8 1005.4
20260502030043 25 360 16.1 0.0 0.00 0.00 0.00 8 1005.3
20260502025528 26 360 14.5 0.0 0.00 0.00 0.00 8 1005.3
20260502025010 25 360 11.3 0.0 0.00 0.00 0.00 8 1005.2
20260502024603 26 360 9.7 0.0 0.00 0.00 0.00 8 1005.2
20260502024036 26 360 14.5 0.0 0.00 0.00 0.00 8 1005.0
20260502023515 26 360 11.3 0.0 0.00 0.00 0.00 8 1004.9
20260502023059 26 360 4.8 0.0 0.00 0.00 0.00 8 1004.8
20260502022537 26 360 1.6 0.0 0.00 0.00 0.00 8 1004.8
20260502022019 26 360 3.2 0.0 0.00 0.00 0.00 8 1004.8
20260502021503 26 360 3.2 0.0 0.00 0.00 0.00 8 1004.9
20260502021052 27 360 4.8 0.0 0.00 0.00 0.00 8 1004.8
20260502020538 27 360 6.4 0.0 0.00 0.00 0.00 8 1004.8
20260502020020 27 360 6.4 0.0 0.00 0.00 0.00 8 1004.7
20260502015503 27 360 6.4 0.0 0.00 0.00 0.00 8 1004.9
20260502015048 27 360 8.0 0.0 0.00 0.00 0.00 8 1004.9
20260502014532 27 360 9.7 0.0 0.00 0.00 0.00 8 1004.8
20260502014006 27 360 6.4 0.0 0.00 0.00 0.00 8 1004.7
20260502013555 27 360 4.8 0.0 0.00 0.00 0.00 8 1004.6
20260502013031 27 360 4.8 0.0 0.00 0.00 0.00 8 1004.6
20260502012514 28 360 3.2 0.0 0.00 0.00 0.00 8 1004.6
20260502012100 28 360 3.2 0.0 0.00 0.00 0.00 8 1004.7
20260502011542 27 84 3.2 0.0 0.00 0.00 0.00 8 1004.7
20260502011024 28 51 3.2 0.0 0.00 0.00 0.00 8 1004.7
20260502010506 27 257 3.2 0.0 0.00 0.00 0.00 8 1004.7
20260502010107 28 94 3.2 0.0 0.00 0.00 0.00 8 1004.5
20260502005540 28 284 3.2 0.0 0.00 0.00 0.00 8 1004.9
20260502005024 28 343 1.6 0.0 0.00 0.00 0.00 8 1004.9
20260502004505 28 186 3.2 0.0 0.00 0.00 0.00 9 1004.8
20260502004050 28 55 4.8 0.0 0.00 0.00 0.00 8 1004.8
20260502003534 28 13 4.8 0.0 0.00 0.00 0.00 8 1004.9
20260502003018 28 355 6.4 0.0 0.00 0.00 0.00 8 1004.8
20260502002603 28 301 8.0 0.0 0.00 0.00 0.00 8 1004.9
20260502002043 28 328 9.7 0.0 0.00 0.00 0.00 7 1004.7
20260502001520 30 221 4.8 0.0 0.00 0.00 0.00 9 1004.0
20260502001002 30 217 1.6 0.0 0.00 0.00 0.00 8 1004.6
20260502000550 29 269 1.6 0.0 0.00 0.00 0.00 9 1004.8
20260502000028 29 150 1.6 0.0 0.00 0.00 0.00 9 1004.8
20260501235506 30 86 1.6 0.0 0.00 0.00 0.00 10 1004.5
20260501235052 29 110 3.2 0.0 0.00 0.00 0.00 10 1004.7
20260501234543 29 98 3.2 0.0 0.00 0.00 0.00 9 1004.7
20260501234019 30 238 1.6 0.0 0.00 0.00 0.00 9 1004.4
20260501233501 28 197 1.6 0.0 0.00 0.00 0.00 10 1004.7
20260501233043 28 84 3.2 0.0 0.00 0.00 0.00 9 1004.6
20260501232521 29 30 1.6 0.0 0.00 0.00 0.00 10 1004.7
20260501232003 28 80 3.2 0.0 0.00 0.00 0.00 11 1004.7
20260501231551 28 121 3.2 0.0 0.00 0.00 0.00 10 1004.7
20260501231034 28 146 4.8 0.0 0.00 0.00 0.00 10 1004.8
20260501230516 28 101 6.4 0.0 0.00 0.00 0.00 10 1004.8
20260501225535 28 360 6.4 0.0 0.00 0.00 0.00 10 1005.1
20260501225019 28 78 6.4 0.0 0.00 0.00 0.00 11 1005.2
20260501224503 27 26 4.8 0.0 0.00 0.00 0.00 10 1005.3
20260501224046 28 109 4.8 0.0 0.00 0.00 0.00 10 1005.2
20260501223527 28 101 4.8 0.0 0.00 0.00 0.00 10 1005.4
20260501223011 28 87 1.6 0.0 0.00 0.00 0.00 10 1005.4
20260501222553 29 54 0.0 0.0 0.00 0.00 0.00 11 1005.5
20260501222032 30 360 1.6 0.0 0.00 0.00 0.00 10 1005.5
20260501221514 29 360 1.6 0.0 0.00 0.00 0.00 10 1005.6
20260501221105 30 360 1.6 0.0 0.00 0.00 0.00 10 1005.5
20260501220545 29 360 3.2 0.0 0.00 0.00 0.00 11 1005.6
20260501220023 28 360 3.2 0.0 0.00 0.00 0.00 11 1005.7
20260501215505 28 360 3.2 0.0 0.00 0.00 0.00 11 1005.8
20260501215045 28 360 4.8 0.0 0.00 0.00 0.00 12 1005.8
20260501214522 28 360 4.8 0.0 0.00 0.00 0.00 11 1006.0
20260501214002 27 360 3.2 0.0 0.00 0.00 0.00 11 1006.1
20260501213551 28 360 3.2 0.0 0.00 0.00 0.00 11 1006.0
20260501213030 27 360 6.4 0.0 0.00 0.00 0.00 12 1006.2
20260501212512 27 360 4.8 0.0 0.00 0.00 0.00 11 1006.4
20260501212100 27 360 3.2 0.0 0.00 0.00 0.00 12 1006.3
20260501211539 27 360 6.4 0.0 0.00 0.00 0.00 12 1006.3
20260501211020 27 360 8.0 0.0 0.00 0.00 0.00 12 1006.4
20260501210503 27 360 8.0 0.0 0.00 0.00 0.00 12 1006.4
20260501210049 27 360 6.4 0.0 0.00 0.00 0.00 12 1006.5
20260501205528 27 360 3.2 0.0 0.00 0.00 0.00 12 1006.4
20260501205010 27 360 1.6 0.0 0.00 0.00 0.00 13 1006.6
20260501204618 27 360 3.2 0.0 0.00 0.00 0.00 13 1006.6
20260501204028 27 360 1.6 0.0 0.00 0.00 0.00 12 1006.5
20260501203507 29 360 1.6 0.0 0.00 0.00 0.00 12 1006.3
20260501203051 28 360 3.2 0.0 0.00 0.00 0.00 12 1006.4
20260501202529 28 360 3.2 0.0 0.00 0.00 0.00 13 1006.4
20260501202006 27 360 3.2 0.0 0.00 0.00 0.00 12 1006.8
20260501201550 27 360 1.6 0.0 0.00 0.00 0.00 12 1006.9
20260501201030 27 360 1.6 0.0 0.00 0.00 0.00 12 1007.0
20260501200512 27 360 1.6 0.0 0.00 0.00 0.00 13 1007.0
20260501200059 28 360 1.6 0.0 0.00 0.00 0.00 12 1006.9
20260501195546 28 360 1.6 0.0 0.00 0.00 0.00 13 1006.6
20260501195025 27 360 1.6 0.0 0.00 0.00 0.00 14 1006.9
20260501194508 26 360 1.6 0.0 0.00 0.00 0.00 13 1007.1
20260501194052 26 360 3.2 0.0 0.00 0.00 0.00 13 1007.1
20260501193530 28 360 4.8 0.0 0.00 0.00 0.00 13 1007.0
20260501193009 27 360 4.8 0.0 0.00 0.00 0.00 13 1007.2
20260501192555 27 360 3.2 0.0 0.00 0.00 0.00 13 1007.2
20260501192032 26 360 4.8 0.0 0.00 0.00 0.00 13 1007.3
20260501191517 26 360 3.2 0.0 0.00 0.00 0.00 14 1007.5
20260501191104 26 360 3.2 0.0 0.00 0.00 0.00 14 1007.5
20260501190546 26 360 3.2 0.0 0.00 0.00 0.00 13 1007.7
20260501190023 26 360 3.2 0.0 0.00 0.00 0.00 13 1007.6
20260501185507 27 360 3.2 0.0 0.00 0.00 0.00 13 1007.6
20260501185050 28 360 1.6 0.0 0.00 0.00 0.00 13 1007.8
20260501184530 27 360 1.6 0.0 0.00 0.00 0.00 13 1007.9
20260501184011 27 360 3.2 0.0 0.00 0.00 0.00 14 1007.8
20260501183553 26 360 4.8 0.0 0.00 0.00 0.00 14 1008.1
20260501183033 26 360 6.4 0.0 0.00 0.00 0.00 14 1008.2
20260501182511 26 360 6.4 0.0 0.00 0.00 0.00 14 1008.1
20260501182052 26 360 4.8 0.0 0.00 0.00 0.00 13 1008.1
20260501181530 26 360 3.2 0.0 0.00 0.00 0.00 14 1008.2
20260501181008 27 360 3.2 0.0 0.00 0.00 0.00 13 1008.3
20260501180549 27 360 1.6 0.0 0.00 0.00 0.00 12 1008.1
20260501180033 27 360 1.6 0.0 0.00 0.00 0.00 13 1008.1
20260501175510 26 360 3.2 0.0 0.00 0.00 0.00 14 1008.0
20260501175055 26 360 3.2 0.0 0.00 0.00 0.00 14 1008.1
20260501174539 26 360 4.8 0.0 0.00 0.00 0.00 14 1008.1
20260501174006 26 360 3.2 0.0 0.00 0.00 0.00 14 1008.1
20260501173549 26 360 1.6 0.0 0.00 0.00 0.00 14 1008.1
20260501173026 26 360 3.2 0.0 0.00 0.00 0.00 15 1008.0
20260501172606 26 360 3.2 0.0 0.00 0.00 0.00 14 1008.2
20260501172045 25 360 3.2 0.0 0.00 0.00 0.00 16 1008.2
20260501171523 25 360 3.2 0.0 0.00 0.00 0.00 15 1008.2
20260501171103 25 360 3.2 0.0 0.00 0.00 0.00 15 1008.3
20260501170537 25 360 4.8 0.0 0.00 0.00 0.00 15 1008.3
20260501170017 25 360 4.8 0.0 0.00 0.00 0.00 14 1008.3
20260501165606 25 360 4.8 0.0 0.00 0.00 0.00 15 1008.3
20260501165041 25 360 4.8 0.0 0.00 0.00 0.00 15 1008.3
20260501164517 25 360 6.4 0.0 0.00 0.00 0.00 16 1008.3
20260501164057 24 360 6.4 0.0 0.00 0.00 0.00 15 1008.3
20260501163533 24 360 4.8 0.0 0.00 0.00 0.00 16 1008.2